H-2A DEB, 43069

Orbit data source: Space-Track

H-2A DEB, 43069 is space debris in SSO originally from a launch on Sat, 23 Dec 2017 UTC launched from the Tanegashima Space Center (TNSTA). Debris objects in space refer to the collection of defunct objects orbiting the Earth. Examples of debris include non-operational satellites, rocket bodies, and fragments generated from explosions, collisions, or faulty payload assembly.

Loading next visibility...
Identifier
43069, 2017-082E
Orbit
SSO
Last TLE update
4 hours ago
Origin
Manufacturer
MELCO
Mission
Spacecraft
Bus & Motor
Unknown
Mass
Unknown
Launch date (UTC)
2017-12-23 (8 years ago)
Launch vehicle
Unknown
Launch site
Tanegashima Space Center (TNSTA)
Object type
Payload
Rocket body
Debris
Shape & HBR
Unknown
Radar Cross Section
Small (<0.1 m²)

Expand to show TLE details & history

TLE from 4 hours ago
0 H-2A DEB
1 43069U 17082E   25190.16376951  .00002967  00000-0  71530-3 0  9998
2 43069  98.2845 255.9041 0026337 112.2135 248.1859 14.53743165396837
Epoch: 2025-07-09T03:55Z
TLE epoch observation values (Epoch: 2025-07-09T03:55:49.685Z)
Latitude
-0.00005°
Longitude
-90.40125°
Altitude
723.407 km
Speed
7.49 km/s
True Right ascension
17h 03m 36s
True Declination
0° 00' 00"
Sunlit
Object was in full shadow at epoch
Visualization orbit readout
Latitude
-74.23017°
Longitude
58.92917°
Altitude
755.786 km
Speed
7.468 km/s
Apparent Right ascension
07h 11m 34s
Apparent Declination
-63° 21' 03"
Sunlit
Object is in daylight
Visualization observer readout
Local Sidereal Time
20:34:08
Azimuth
159.196° S
Elevation
-63.563°
Doppler factor
1
Orbital elements
Apogee altitude
729.212 km
Perigee altitude
691.873 km
Semi-major axis
7,088.68 km
Eccentricity
0.00263
Inclination
98.2845°
RAAN
255.9041°
Arg. of periapsis
112.2135°
True anomaly
Unknown
Mean anomaly
248.1859°
Eccentric anomaly
Unknown
Mean motion
3.6366 °/min
Orbital period
98.99 mins
BSTAR
0.0007153
Loading maneuver chart data...
Loading SW <> Apogee altitude chart data...
Loading historical data...
Loading historical data...
Loading historical data...
Loading historical data...
Loading historical data...
Loading historical data...
Loading historical data...
Other satellites on launch #82 in the year 2017 (2017-12-23 UTC)

H-2A DEB Visibility forecast

Observer location: undefined°, undefined°

Span
Click to sort rows by Start time (UTC) header in descending order
Start Az.
Max El. time (UTC)
Max El. Az.
Max El.
End time (UTC)
End Az.
4 mins2025-07-09 16:06:29.190Z64.735° ENE2025-07-09 16:08:29.190Z92.834° ESE15.033°2025-07-09 16:10:29.190Z120.638° SE
7 mins2025-07-09 17:43:29.190Z356.416° N2025-07-09 17:46:29.190Z296.021° NW37.562°2025-07-09 17:50:29.190Z215.472° SW
4 mins2025-07-10 03:14:29.190Z84.414° E2025-07-10 03:15:29.190Z68.917° E17.225°2025-07-10 03:18:29.190Z26.54° NE
7 mins2025-07-10 04:50:29.190Z195.493° SSW2025-07-10 04:53:29.190Z266.881° W36.339°2025-07-10 04:57:29.190Z333.272° NNW
|